Regional Weather Roundup
Issued by NWS Wilmington, NC

Home | Current Version | Previous Version | Text Only | Print | Product List | Glossary On
Versions: 1 2 3 4 5 6 7 8 9 10 11 12 13 14 15 16 17 18 19 20 21 22 23 24 25 26 27 28
000
ASUS42 KILM 242010
RWRILM
RWRILM
REGIONAL HOURLY WEATHER ROUNDUP
NATIONAL WEATHER SERVICE WILMINGTON NC
400 PM EDT THU APR 24 2014

NOTE: "FAIR" INDICATES FEW OR NO CLOUDS BELOW 12,000 FEET WITH NO
SIGNIFICANT WEATHER AND/OR OBSTRUCTIONS TO VISIBILITY.

...............WFO WILMINGTON COUNTY WARNING AREA...............

......COASTAL NC AND SC COUNTIES......

CITY           SKY/WX    TMP DP  RH WIND       PRES   REMARKS
WILMINGTON     SUNNY     68  40  35 SE10      30.04F
SOUTHPORT      SUNNY     66  44  45 SE7       30.05F
N MYRTLE BEACH SUNNY     65  48  54 SE12      30.04F
MYRTLE BEACH   SUNNY     66  46  48 SE12      30.04F

......INLAND NC AND SC COUNTIES.......

CITY           SKY/WX    TMP DP  RH WIND       PRES   REMARKS
LUMBERTON      SUNNY     72  40  31 MISG      30.01F
ELIZABETHTOWN  SUNNY     72  36  26 SW5       30.02F
WHITEVILLE     SUNNY     73  39  28 CALM      30.01F
FLORENCE       SUNNY     76  41  28 SE9       30.00F
DARLINGTON     SUNNY     73  39  29 SE6       30.02F

....................REST OF NORTH CAROLINA......................

.........EASTERN NC.........

CITY           SKY/WX    TMP DP  RH WIND       PRES   REMARKS
CAPE HATTERAS  SUNNY     60  40  47 SE6       30.06F
JACKSONVILLE   SUNNY     72  64  78 SW7       30.03F
MOREHEAD CITY  SUNNY     64  42  44 S13       30.04F
KENANSVILLE    MOSUNNY   70  30  23 SW3       30.03F
NEW BERN       SUNNY     69  33  26 N5        30.04F
ELIZABETH CITY SUNNY     68  27  21 N3        30.02F

.........CENTRAL NC.........

CITY           SKY/WX    TMP DP  RH WIND       PRES   REMARKS
RALEIGH DURHAM PTSUNNY   70  35  27 W6        30.02F
ROCKY MOUNT    SUNNY     69  30  23 VRB3      30.03F
ROANOKE RAPIDS NOT AVBL
FAYETTEVILLE   SUNNY     71  32  23 S3        30.01F
HOFFMAN        SUNNY     72  37  27 S12G17    30.02F

.........WESTERN NC.........

CITY           SKY/WX    TMP DP  RH WIND       PRES   REMARKS
CHARLOTTE      MOSUNNY   71  38  29 CALM      30.01F
GREENSBORO     CLOUDY    70  33  25 VRB3      30.01F
HICKORY        NOT AVBL
BOONE          NOT AVBL
ASHEVILLE      NOT AVBL

.....................REST OF SOUTH CAROLINA.....................

.........EASTERN SC.........

CITY           SKY/WX    TMP DP  RH WIND       PRES   REMARKS
CHARLESTON     SUNNY     75  53  46 E15G22    30.01F
BEAUFORT MCAS  MOSUNNY   73  60  63 S13       30.00F
HILTON HEAD    NOT AVBL

.........CENTRAL SC.........

CITY           SKY/WX    TMP DP  RH WIND       PRES   REMARKS
COLUMBIA       MOSUNNY   79  45  29 E8        29.97F
ORANGEBURG     SUNNY     78  47  33 VRB6      29.98F
SUMTER SHAW    SUNNY     77  44  31 SE13      29.98F

.........WESTERN SC.........

CITY           SKY/WX    TMP DP  RH WIND       PRES   REMARKS
GREENVILLE     NOT AVBL
ROCK HILL      SUNNY     73  37  27 SW10G16   30.01F
ANDERSON       SUNNY     76  39  26 SW7       29.99F
CLEMSON        NOT AVBL
GREENWOOD      SUNNY     76  42  29 CALM      30.00F


...................COASTAL AND OFFSHORE REPORTS..................

................LOCAL PIERS AND NC RESERVE................


STATION/POSITION TIME  SKY/WX   TEMP    WIND        PRES    VSBY
                                AIR SEA DIR/SP/G
                 (UTC)          (F)     (DEG/KT/KT) (MB)    (MI)
JOHNY MRCER PIER 2000            60 63  130/ 10/ 11 1017.1F
NC RESRV MASNBRO 1900            65     100/  5     1018.0S
OCEAN CREST PIER 2000            61 64  120/ 16/ 17 1016.2F
SPRINGMAID  PIER 2000            61 63   90/ 11/ 12 1017.6F


................COASTAL AND OFFSHORE BUOYS................


STATION/POSITION TIME  SKY/WX   TEMP    WIND        PRES    VSBY
                                AIR SEA DIR/SP/G
                 (UTC)          (F)     (DEG/KT/KT) (MB)    (MI)
DIMNDSHOAL 41025 NOT AVBL
CAPE LOOKOUT     1900            58     100/  8/  9 1018.1F
ONSLOW BAY 41036 2000            60 70   90/  4/  6 1018.1F
WVE H/P(F/S)=  4/10 WND WVE H/P(F/S)=  2/ 4 SWL H/P/D(F/S/D)=  3/ 80/10

5 WRITEBCH 41038 1900            60 60  110/ 12/ 14 1017.9F
MASONBORO  41110 2000               61                N/A
WVE H/P(F/S)=  3/10 WND WVE H/P(F/S)=  3/10 SWL H/P/D(F/S/D)=  2/ 90/11

WILM HARBR 41108 NOT AVBL
27WRITEBCH 41037 1900            58      60/ 10/ 12 1018.2F
FRYING PAN 41013 2000            64 68   70/ 14/ 17 1016.9F
WVE H/P(F/S)=  4/ 6 WND WVE H/P(F/S)=  3/ 6 SWL H/P/D(F/S/D)=  2/ 60/ 9

SUNST NRSH 41024 1900            62     120/ 14/ 16 1017.5F
CAPRS NRSH 41029 NOT AVBL
EDISTO     41004 2000            70 72   60/ 16/ 17 1015.5F
WVE H/P(F/S)=  5/ 6 WND WVE H/P(F/S)=  5/ 6 SWL H/P/D(F/S/D)=  2/ 8



..........OFFSHORE BUOYS BEYOND 100 NM OFFSHORE...........
.....IN A TRIANGLE---HAT TO BERMUDA TO BAHAMAS TO HAT.....


STATION/POSITION TIME  SKY/WX   TEMP    WIND        PRES    VSBY
                                AIR SEA DIR/SP/G
                 (UTC)          (F)     (DEG/KT/KT) (MB)    (MI)
150E HAT   41001 NOT AVBL
W BERMUDA  41048 1949            65 68  300/ 23/ 29 1014.4F
WVE H/P(F/S)= 13/11 WND WVE H/P(F/S)=  8/ 6

ATLANTIC S 41049 1918            74 75  320/ 16/ 17 1013.5S
WVE H/P(F/S)=  5/ 7 WND WVE H/P(F/S)=  3/ 7 SWL H/P/D(F/S/D)=  3/ 20/14

E BAHAMAS  41046 NOT AVBL
NE BAHAMAS 41047 1856            74 76   60/  6/  8 1016.3F
WVE H/P(F/S)=  4/ 7 WND WVE H/P(F/S)=  2/ 4 SWL H/P/D(F/S/D)=  3/320/ 7

120E CANVRL41010 2000            75 77  140/  6/  8 1016.2F
WVE H/P(F/S)=  2/ 8 SWL H/P/D(F/S/D)=  2/ 70/ 8


END



USA.gov is the U.S. government's official web portal to all federal, state and local government web resources and services.